TimeCDT,TemperatureF,Dew PointF,Humidity,Sea Level PressureIn,VisibilityMPH,Wind Direction,Wind SpeedMPH,Gust SpeedMPH,PrecipitationIn,Events,Conditions,WindDirDegrees,DateUTC
12:53 AM,62.1,60.1,93,29.89,10.0,SSE,19.6,-,N/A,,Partly Cloudy,150,2012-10-13 05:53:00
1:53 AM,62.1,60.1,93,29.86,10.0,SSE,16.1,23.0,N/A,,Clear,150,2012-10-13 06:53:00
2:51 AM,64.4,60.8,88,29.95,10.0,South,25.3,31.1,N/A,Thunderstorm,Scattered Clouds,170,2012-10-13 07:51:00
2:53 AM,64.9,61.0,87,29.84,10.0,South,24.2,31.1,N/A,Thunderstorm,Scattered Clouds,170,2012-10-13 07:53:00
3:06 AM,66.2,60.8,83,29.94,10.0,South,27.6,33.4,N/A,,Mostly Cloudy,170,2012-10-13 08:06:00
3:51 AM,66.2,62.6,88,29.93,10.0,South,26.5,35.7,N/A,,Mostly Cloudy,170,2012-10-13 08:51:00
3:53 AM,66.0,62.1,87,29.81,10.0,South,25.3,35.7,N/A,,Scattered Clouds,180,2012-10-13 08:53:00
4:01 AM,66.2,62.6,88,29.94,10.0,South,23.0,35.7,N/A,Thunderstorm,Mostly Cloudy,190,2012-10-13 09:01:00
4:24 AM,66.2,62.6,88,29.93,10.0,South,20.7,31.1,N/A,,Mostly Cloudy,190,2012-10-13 09:24:00
4:53 AM,66.0,62.1,87,29.82,10.0,South,20.7,26.5,N/A,,Overcast,190,2012-10-13 09:53:00
5:53 AM,66.0,62.1,87,29.83,10.0,SSW,13.8,-,N/A,,Overcast,210,2012-10-13 10:53:00
6:21 AM,66.2,62.6,88,29.95,10.0,SSW,13.8,-,N/A,,Overcast,210,2012-10-13 11:21:00
6:53 AM,66.0,62.1,87,29.83,10.0,SW,13.8,-,N/A,,Overcast,230,2012-10-13 11:53:00
7:34 AM,64.4,60.8,88,29.93,10.0,SSW,15.0,-,N/A,,Scattered Clouds,210,2012-10-13 12:34:00
7:53 AM,64.0,60.1,87,29.82,10.0,SSW,13.8,-,N/A,,Clear,210,2012-10-13 12:53:00
8:53 AM,63.0,60.1,90,29.83,10.0,SW,9.2,-,N/A,,Clear,220,2012-10-13 13:53:00
9:53 AM,66.9,48.9,52,29.82,10.0,WSW,13.8,-,N/A,,Clear,250,2012-10-13 14:53:00
10:53 AM,70.0,39.0,32,29.81,10.0,West,15.0,24.2,N/A,,Clear,270,2012-10-13 15:53:00
11:53 AM,72.0,33.1,24,29.81,10.0,West,26.5,33.4,N/A,,Clear,260,2012-10-13 16:53:00
12:53 PM,75.0,26.1,16,29.76,10.0,WSW,26.5,41.4,N/A,,Clear,240,2012-10-13 17:53:00
1:53 PM,75.0,21.0,13,29.74,10.0,WSW,26.5,35.7,N/A,,Clear,250,2012-10-13 18:53:00
2:53 PM,73.0,28.0,19,29.73,10.0,West,24.2,38.0,N/A,,Clear,260,2012-10-13 19:53:00
3:53 PM,73.0,28.0,19,29.72,10.0,West,26.5,34.5,N/A,,Clear,270,2012-10-13 20:53:00
4:53 PM,72.0,30.0,21,29.73,10.0,West,23.0,34.5,N/A,,Clear,260,2012-10-13 21:53:00
5:53 PM,71.1,30.9,23,29.72,10.0,WSW,20.7,-,N/A,,Clear,250,2012-10-13 22:53:00
6:53 PM,69.8,26.6,20,29.87,10.0,West,15.0,24.2,N/A,,Clear,260,2012-10-13 23:53:00
7:53 PM,64.9,30.0,27,29.78,10.0,West,12.7,-,N/A,,Clear,260,2012-10-14 00:53:00
8:53 PM,62.6,33.8,34,29.94,10.0,WNW,15.0,21.9,N/A,,Clear,290,2012-10-14 01:53:00
9:53 PM,61.0,35.1,38,29.87,10.0,NW,8.1,-,N/A,,Clear,310,2012-10-14 02:53:00
10:53 PM,55.0,35.1,47,29.90,10.0,WNW,10.4,-,N/A,,Clear,290,2012-10-14 03:53:00